星链-3950 (STARLINK-3950 )

导读

STARLINK-3950是美国航天企业SpaceX星链星座中的卫星,于2022年7月24日发射入轨。星链计划旨在搭建全球卫星互联网,为全球提供高速低延迟网络服务。作为低轨卫星,它在提升星链星座组网覆盖能力,推动全球互联网普及应用方面发挥作用,该卫星目前在既定轨道开展相关运营工作。

基本信息
目录编号:
53264
目录名称:
STARLINK-3950
国际标识:
2022-086Y
轨道中心:
EARTH
卫星名称:
星链-3950
卫星全名:
星链-3950 (STARLINK-3950 )
卫星状态:
在轨 (已飞行1424 天)
发射日期:
2022-07-24 UTC
国别 :
美国 (US)
星等 :
--
轨道信息
数据来源 国际轨道数据 AOE轨道数据
星历时间 2026-06-17T10:22:48+0800
11小时前
查看轨道信息
2026-06-14T03:00:00+0800
3天前
查看轨道信息
半长轴 6917.831km 6917.874km
偏心率 0.0001387 0.0001212
轨道倾角 53.160° 53.159°
近地点辐角 83.945° 130.537°
升交点赤经 107.762° 122.628°
平近点角 276.170° 253.989°
近地点 538.734km 538.898km
远地点 540.654km 540.576km
周期 95.437分钟 95.437分钟
每日圈数 15.088563 15.088421
详细信息
固有亮度:
5
最大亮度:
2.5
卫星平台:
Starlink v1.5
覆盖范围:
全球
运营商:
太空探索技术公司
运营商所在国:
美国
制造商(研发单位):
太空探索技术公司
制造商所在国:
美国
使用方式:
暂无
卫星简介
星链(Starlink)计划是由太空探索技术公司(SpaceX)提出的一个巨型低轨卫星互联网星座项目,计划在2019年至2024年间在太空搭建由约1.2万颗卫星组成的“星链”网络,其中1584颗将部署在地球上空550千米处的近地轨道,并从2020年开始工作。该卫星仍在工作。
2D轨道图
3D轨道图
轨道高度分析图
轨道倾角分析图
轨道综合分析图
查看轨道综合分析图